Location: Feigenhofen
(48.4939°N, 10.7793°E)
Time: 23:09:45
(UTC+00:00)

Cosmos 839 Rocket - Pass Details

Date: 26 May 2022
Orbit: 968 x 2084 km, 65.9° (Epoch: 24 June)

Event Time Altitude Azimuth Distance (km) Brightness Sun altitude
Rises 00:35:28 0° 320° (NW) 3,691 7.4 -18.1°
Reaches altitude 10° 00:37:57 10° 315° (NW) 2,781 6.7 -17.9°
Maximum altitude 00:44:07 52° 241° (WSW) 1,346 4.4 -17.5°
Enters shadow 00:49:12 20° 174° (S) 2,513 5.6 -17.2°
